Terug naar catalogus

STARLINK-37281

ActiefCommunicatieSSO
NORAD 68773·PAYLOAD·🇺🇸 United States

Gelanceerd Apr 19, 2026 vanaf Vandenberg Space Force Base

Loading…

Volgende Passages (komende 24 uur)

TLE

VersSource: CelesTrak SupGP

Epoch: Sep 15, 2026, 04:04 UTC

1 68773C 26086H   26258.16993056 -.00045820  00000+0 -14225-2 0  2589
2 68773  97.2840 293.6479 0001021  84.9213  17.5260 15.33460809    15

Volg STARLINK-37281 in realtime met AllMySat

Download on the App Store